DW0529 Weather Reports


Display with metric or nautical units.
time (UTC)temp
F
wind
direction
speed
MPH
gust
MPH
rain 1hr
in
rain 24hr
in
rain mn
in
humidity
%
barometer
mb
20260902035701 62 120 0.0 0.0 0.00 0.00 0.00 62 970.0
20260902034644 62 120 0.0 1.0 0.00 0.00 0.00 61 969.8
20260902032448 63 120 0.0 0.0 0.00 0.00 0.00 79 969.7
20260902031446 63 210 0.0 0.0 0.00 0.00 0.00 74 969.7
20260902025354 64 210 0.0 0.0 0.00 0.00 0.00 77 969.5
20260902023209 65 209 0.0 2.0 0.00 0.00 0.00 74 969.3
20260902022229 66 0 1.0 4.0 0.00 0.00 0.00 75 969.2
20260902021224 67 200 1.0 4.0 0.00 0.00 0.00 73 969.3
20260902020222 68 202 1.0 4.0 0.00 0.00 0.00 71 969.3
20260902014110 70 190 1.0 4.0 0.00 0.00 0.00 64 969.4
20260902013124 71 198 1.0 6.0 0.00 0.00 0.00 58 969.4
20260902012137 72 192 2.0 6.0 0.00 0.00 0.00 56 969.3
20260902011104 73 167 1.0 5.0 0.00 0.00 0.00 53 969.4
20260902005014 75 209 1.0 4.0 0.00 0.00 0.00 45 969.6
20260902001740 76 197 1.0 5.0 0.00 0.00 0.00 37 969.7
20260902000718 76 213 1.0 5.0 0.00 0.00 0.00 38 969.6
20260901235731 77 269 1.0 6.0 0.00 0.00 0.00 37 969.7
20260901234714 77 229 1.0 8.0 0.00 0.00 0.00 31 969.7
20260901233703 76 229 2.0 8.0 0.00 0.00 0.00 34 969.6
20260901231522 76 244 2.0 9.0 0.00 0.00 0.00 37 969.7
20260901230458 75 237 3.0 9.0 0.00 0.00 0.00 42 969.9
20260901225502 76 194 2.0 8.0 0.00 0.00 0.00 38 970.0
20260901224436 77 235 3.0 9.0 0.00 0.00 0.00 35 970.0
20260901222321 78 206 2.0 7.0 0.00 0.00 0.00 43 970.0
20260901221338 78 239 3.0 10.0 0.00 0.00 0.00 35 970.0
20260901220314 79 209 3.0 10.0 0.00 0.00 0.00 36 970.0
20260901215255 80 221 2.0 8.0 0.00 0.00 0.00 36 970.2
20260901214237 80 219 2.0 6.0 0.00 0.00 0.00 33 970.3
20260901213259 80 215 2.0 7.0 0.00 0.00 0.00 32 970.3
20260901212238 79 221 3.0 8.0 0.00 0.00 0.00 29 970.4
20260901210107 78 226 4.0 9.0 0.00 0.00 0.00 32 970.4
20260901205039 78 213 3.0 8.0 0.00 0.00 0.00 27 970.7
20260901204103 78 268 2.0 8.0 0.00 0.00 0.00 37 970.6
20260901201937 77 224 2.0 9.0 0.00 0.00 0.00 45 970.7
20260901200941 77 223 2.0 8.0 0.00 0.00 0.00 46 970.8
20260901200002 76 230 3.0 8.0 0.00 0.00 0.00 50 970.9
20260901194938 77 213 2.0 7.0 0.00 0.00 0.00 49 970.9
20260901193920 77 137 2.0 6.0 0.00 0.00 0.00 53 971.0
20260901192908 77 228 2.0 8.0 0.00 0.00 0.00 54 971.1
20260901191853 77 184 2.0 8.0 0.00 0.00 0.00 53 971.2
20260901190913 77 253 1.0 6.0 0.00 0.00 0.00 56 971.3
20260901185918 77 190 2.0 5.0 0.00 0.00 0.00 56 971.3
20260901183801 77 225 1.0 3.0 0.00 0.00 0.00 57 971.3
20260901181558 75 129 0.0 5.0 0.00 0.00 0.00 61 971.4
20260901175451 73 198 2.0 6.0 0.00 0.00 0.00 65 971.4
20260901174449 72 227 0.0 2.0 0.00 0.00 0.00 66 971.4
20260901173427 71 209 1.0 6.0 0.00 0.00 0.00 69 971.3
20260901172410 70 172 1.0 6.0 0.00 0.00 0.00 71 971.3
20260901171336 69 215 1.0 4.0 0.00 0.00 0.00 74 971.3
20260901170324 68 199 1.0 4.0 0.00 0.00 0.00 76 971.1
20260901165310 67 215 1.0 4.0 0.00 0.00 0.00 79 971.2
20260901164252 66 184 1.0 4.0 0.00 0.00 0.00 82 971.1
20260901163248 64 226 0.0 4.0 0.00 0.00 0.00 86 971.2
20260901162247 63 219 1.0 4.0 0.00 0.00 0.00 92 971.1
20260901161218 63 180 0.0 4.0 0.00 0.00 0.00 96 971.2
20260901160146 62 214 0.0 3.0 0.00 0.00 0.00 97 971.2
20260901155115 62 0 0.0 3.0 0.00 0.00 0.00 97 971.2
20260901154046 61 0 0.0 4.0 0.00 0.00 0.00 98 971.1
20260901153041 61 0 1.0 4.0 0.00 0.00 0.00 98 971.0
20260901152014 61 0 0.0 3.0 0.00 0.00 0.00 98 971.0
20260901151019 61 0 0.0 2.0 0.00 0.00 0.00 98 970.8
20260901150021 60 0 0.0 3.0 0.00 0.00 0.00 98 970.7
20260901145003 60 0 0.0 3.0 0.00 0.00 0.00 98 970.4
20260901142844 60 185 0.0 0.0 0.00 0.00 0.00 98 970.0
20260901141850 60 185 0.0 0.0 0.00 0.00 0.00 97 969.9
20260901140823 59 185 0.0 0.0 0.00 0.00 0.00 97 969.9
20260901135827 59 185 0.0 0.0 0.00 0.00 0.00 97 970.0
20260901134803 59 185 0.0 0.0 0.00 0.00 0.00 97 969.8
20260901133802 59 185 0.0 0.0 0.00 0.00 0.00 97 969.7
20260901132732 59 185 0.0 0.0 0.00 0.00 0.00 97 969.7
20260901131744 59 185 0.0 0.0 0.00 0.00 0.00 97 969.7
20260901130743 59 185 0.0 0.0 0.00 0.00 0.00 97 969.7
20260901124605 59 185 0.0 0.0 0.00 0.00 0.00 97 969.6
20260901123546 60 185 0.0 0.0 0.00 0.00 0.00 97 969.7
20260901122521 60 185 0.0 0.0 0.00 0.00 0.00 97 969.7
20260901120342 59 185 0.0 0.0 0.00 0.00 0.00 97 969.7
20260901115330 59 185 0.0 0.0 0.00 0.00 0.00 97 969.7
20260901114327 59 185 0.0 0.0 0.00 0.00 0.00 97 969.6
20260901113340 60 185 0.0 0.0 0.00 0.00 0.00 97 969.6
20260901111144 60 185 0.0 0.0 0.00 0.00 0.00 97 969.6
20260901110118 60 185 0.0 0.0 0.00 0.00 0.00 97 969.7
20260901105140 60 185 0.0 0.0 0.00 0.00 0.00 97 969.6
20260901103037 60 185 0.0 0.0 0.00 0.00 0.00 96 969.8
20260901102058 60 185 0.0 0.0 0.00 0.00 0.00 96 969.7
20260901101026 60 185 0.0 0.0 0.00 0.00 0.00 96 969.8
20260901100001 60 185 0.0 0.0 0.00 0.00 0.00 96 970.0
20260901094932 60 185 0.0 0.0 0.00 0.00 0.00 96 970.0
20260901093934 60 185 0.0 0.0 0.00 0.00 0.00 96 970.0
20260901092926 60 185 0.0 0.0 0.00 0.00 0.00 96 969.8
20260901091946 60 185 0.0 0.0 0.00 0.00 0.00 96 969.8
20260901091002 60 185 0.0 0.0 0.00 0.00 0.00 96 969.9
20260901090000 60 185 0.0 0.0 0.00 0.00 0.00 96 970.0
20260901084925 60 185 0.0 0.0 0.00 0.00 0.00 95 970.1
20260901083913 61 185 0.0 0.0 0.00 0.00 0.00 95 970.0
20260901082913 61 185 0.0 0.0 0.00 0.00 0.00 95 969.9
20260901081904 61 185 0.0 0.0 0.00 0.00 0.00 95 970.0
20260901080834 61 185 0.0 0.0 0.00 0.00 0.00 95 970.0
20260901075808 61 185 0.0 0.0 0.00 0.00 0.00 95 970.1
20260901074801 61 185 0.0 0.0 0.00 0.00 0.00 95 970.1
20260901073749 61 185 0.0 0.0 0.00 0.00 0.00 95 970.2
20260901071548 61 0 0.0 0.0 0.00 0.00 0.00 94 970.2
20260901070514 61 0 0.0 0.0 0.00 0.00 0.00 93 970.2
20260901065506 62 0 0.0 0.0 0.00 0.00 0.00 93 970.1
20260901064520 62 0 0.0 0.0 0.00 0.00 0.00 93 970.0
20260901063459 62 0 0.0 0.0 0.00 0.00 0.00 93 969.8
20260901062452 62 0 0.0 0.0 0.00 0.00 0.00 93 969.8
20260901060253 62 185 0.0 0.0 0.00 0.00 0.00 92 969.6
20260901054158 62 185 0.0 0.0 0.00 0.00 0.00 91 969.6
20260901053202 62 185 0.0 0.0 0.00 0.00 0.00 91 969.7
20260901051032 63 185 0.0 0.0 0.00 0.00 0.00 89 969.6
20260901044847 63 185 0.0 0.0 0.00 0.00 0.00 88 969.5
20260901043814 64 0 0.0 0.0 0.00 0.00 0.00 88 969.5
20260901041632 64 185 0.0 0.0 0.00 0.00 0.00 86 969.2
20260901040643 64 185 0.0 0.0 0.00 0.00 0.00 86 969.1